Location: Cheyres
(46.8153°N, 6.7877°E)
Time: 04:26:34
(UTC+00:00)

QB50P2 - Pass Details

Date: 27 June 2022
Orbit: 590 x 605 km, 97.9° (Epoch: 13 August)

Event Time Altitude Azimuth Distance (km) Brightness Sun altitude
Rises 00:58:23 0° 14° (NNE) 2,856 ? -17.4°
Reaches altitude 10° 01:00:33 10° 15° (NNE) 1,951 ? -17.3°
Maximum altitude 01:04:48 80° 102° (ESE) 616 ? -17.0°
Enters shadow 01:06:40 33° 187° (S) 1,024 ? -16.9°
